Tracking 29892 objects as of 21-Nov-2024
HD Live streaming from Space Station
objects crossing your sky now

FENGYUN 1C DEB

Track FENGYUN 1C DEB now!
10-day predictions


NORAD ID: 33687
Int'l Code: 1999-025DFY
Perigee: 470.6 km
Apogee: 707.0 km
Inclination: 99.0 °
Period: 96.3 minutes
Semi major axis: 6959 km
RCS: 0.0004 m2 (small)
Launch date: May 10, 1999
Source: People's Republic of China (PRC)
Launch site: Taiyaun Space Center, China (TSC)

Note: This is SATELLITE DEBRIS
Your satellite tracking list
Your tracking list is empty




NASA's NSSDC Master Catalog

Two Line Element Set (TLE):
1 33687U 99025DFY 24320.57041730  .00017471  00000-0  11925-2 0  9990
2 33687  98.9793 255.0454 0169799 181.3448 178.7335 14.95221456656032
Source of the keplerian elements: AFSPC